Tracking 31027 objects as of 19-Jul-2025
HD Live streaming from Space Station
objects crossing your sky now

ONEWEB-0578

Track ONEWEB-0578 now!
10-day predictions
ONEWEB-0578 is classified as:


NORAD ID: 56067
Int'l Code: 2023-043X
Perigee: 1,183.5 km
Apogee: 1,186.3 km
Inclination: 87.9 °
Period: 108.9 minutes
Semi major axis: 7555 km
RCS: Unknown
Launch date: March 26, 2023
Source: United Kingdom (UK)
Launch site: SRIHARIKOTA (SRI)
Your satellite tracking list
FENGYUN 1C DEB
Track 1 satellite(s)




NASA's NSSDC Master Catalog

Two Line Element Set (TLE):
1 56067U 23043X   25199.58522251  .00000018  00000-0  13060-4 0  9995
2 56067  87.9273 310.5251 0001859 101.5235 258.6108 13.21827114115073
Source of the keplerian elements: AFSPC